Weather History for Tel Aviv, Israel

Change the Weather History Date:

Wednesday, November 28, 2012

  Actual Average Record
Temperature  
Mean Temperature 66 °F -  
Max Temperature 79 °F 66 °F 89 °F (2005)
Min Temperature 54 °F 50 °F 44 °F (1999)
Cooling Degree Days 2    
Growing Degree Days 16 (Base 50)    
Moisture  
Dew Point 49 °F    
Average Humidity 59    
Maximum Humidity 88    
Minimum Humidity 21    
Precipitation  
Precipitation 0.00 in - - ()
Sea Level Pressure  
Sea Level Pressure 30.08 in    
Wind  
Wind Speed 4 mph ()    
Max Wind Speed 38 mph    
Max Gust Speed -    
Visibility 6.0 miles    
Events      
Averages and records for this station are not official NWS values.
T = Trace of Precipitation, MM = Missing Value Source: Averaged Metar Reports

Daily Weather History Graph

Daily Weather History Graph

Search for Another Location

Airport:

Trip Planner

Search our weather history database for the weather conditions in past years. The results will help you decide how hot, cold, wet, or windy it might be!

Date:

Astronomy

Nov. 28, 2012 Rise Set
Actual Time 6:20 AM IST 4:36 PM IST
Civil Twilight 5:54 AM IST 5:02 PM IST
Nautical Twilight 5:24 AM IST 5:32 PM IST
Astronomical Twilight 4:54 AM IST 6:02 PM IST
Moon 4:35 PM IST (11/28) 6:00 AM IST (11/28)
Length of Visible Light 11h 08m
Length of Day
10h 15m
Full, 100% of the Moon is Illuminated
Nov 28
Full
Nov 28
Full
Dec 6
Last Quarter
Dec 13
New
Dec 20
First Quarter

Hourly Weather History & Observations

Time (IST) Temp. Dew Point Humidity Pressure Visibility Wind Dir Wind Speed Gust Speed Precip Events Conditions
12:50 AM 57.2 °F 53.6 °F 88% 30.09 in - NNE 4.6 mph - N/A   Clear
1:50 AM 57.2 °F 53.6 °F 88% 30.09 in - Variable 2.3 mph - N/A   Clear
2:00 AM 57 °F 53 °F 81% 30.09 in 6 mi 2.3 mph - -  
2:50 AM 55.4 °F 51.8 °F 88% 30.09 in - Calm Calm - N/A   Clear
3:50 AM 55.4 °F 51.8 °F 88% 30.06 in - East 2.3 mph - N/A   Clear
4:50 AM 55.4 °F 50.0 °F 82% 30.06 in - ENE 3.5 mph - N/A   Clear
5:50 AM 55.4 °F 50.0 °F 82% 30.09 in - NE 3.5 mph - N/A   Clear
6:50 AM 55.4 °F 50.0 °F 82% 30.09 in - East 38.0 mph - N/A   Clear
7:50 AM 59.0 °F 50.0 °F 72% 30.12 in - East 1.2 mph - N/A   Clear
8:00 AM 59 °F 51 °F 66% 30.12 in 6 mi East 1.2 mph - -   Scattered Clouds
8:50 AM 64.4 °F 53.6 °F 68% 30.12 in - NE 1.2 mph - N/A   Clear
9:50 AM 71.6 °F 51.8 °F 50% 30.12 in - NNW 2.3 mph - N/A   Clear
10:50 AM 73.4 °F 50.0 °F 44% 30.09 in - WNW 4.6 mph - N/A   Clear
11:50 AM 75.2 °F 46.4 °F 36% 30.06 in - NW 4.6 mph - N/A   Clear
12:50 PM 77.0 °F 46.4 °F 34% 30.06 in - NNW 3.5 mph - N/A   Clear
1:50 PM 77.0 °F 44.6 °F 32% 30.06 in - NNW 3.5 mph - N/A   Clear
2:00 PM 77 °F 44 °F 21% 30.06 in 6 mi NNW 3.5 mph - -   Scattered Clouds
2:50 PM 77.0 °F 44.6 °F 32% 30.04 in - ENE 9.2 mph - N/A   Clear
3:50 PM 77.0 °F 44.6 °F 32% 30.04 in - East 8.1 mph - N/A   Clear
4:50 PM 71.6 °F 46.4 °F 41% 30.06 in - ENE 4.6 mph - N/A   Clear
5:50 PM 69.8 °F 46.4 °F 43% 30.06 in - NE 3.5 mph - N/A   Clear
6:50 PM 64.4 °F 48.2 °F 56% 30.06 in - NE 5.8 mph - N/A   Clear
7:50 PM 64.4 °F 48.2 °F 56% 30.09 in - NNE 3.5 mph - N/A   Clear
8:00 PM 64 °F 48 °F 45% 30.10 in 6 mi NNE 3.5 mph - -  
8:50 PM 62.6 °F 48.2 °F 59% 30.09 in - NNE 4.6 mph - N/A   Clear
9:50 PM 60.8 °F 46.4 °F 59% 30.09 in - North 2.3 mph - N/A   Clear
10:50 PM 59.0 °F 46.4 °F 63% 30.09 in - Calm Calm - N/A   Clear
11:50 PM 60.8 °F 44.6 °F 55% 30.06 in - Variable 1.2 mph - N/A   Clear